Vorticity
5 6 7 7 9 9 8 8 9 9 10 11 12 13 18 21 22 18 20 17 1 12
6 6 6 7 10 8 8 8 8 9 9 10 14 16 20 15 15 16 15 14 25 24
4 4 2 12 8 8 7 8 10 10 12 14 15 16 10 9 4 7 16 8 10 20
6 6 5 8 8 7 9 9 11 12 13 12 14 15 10 5 6 10 12 5 6 8
8 7 5 10 8 8 10 11 13 11 12 11 16 18 13 15 7 7 9 7 7 10
9 5 8 8 8 11 13 12 10 11 11 11 14 8 11 11 10 11 13 11 10 16
4 7 9 9 10 10 11 11 12 12 15 9 8 11 12 14 13 12 12 11 11 11
5 9 12 7 7 9 12 14 13 12 11 4 12 12 12 12 11 12 12 13 14 14
13 12 7 10 9 13 15 14 11 5 11 11 12 11 11 11 10 11 11 12 12 12
12 9 11 9 14 18 13 6 10 10 10 10 11 11 10 10 9 9 9 9 9 9
14 10 9 13 14 7 6 8 9 11 11 10 10 10 9 9 9 10 11 11 10 9
13 8 11 14 8 2 10 8 11 9 11 11 9 8 9 9 9 11 11 11 10 11
8 8 13 10 6 10 8 9 9 9 9 9 9 9 9 10 10 11 11 11 11 11
6 11 11 7 9 9 8 9 10 10 10 11 10 9 9 9 9 10 9 10 10 10
Height
3075 3073 3071 3068 3067 3065 3062 3058 3054 3050 3046 3042 3038 3032 3027 3024 3023 3020 3014 3013 3011 3009
3069 3068 3066 3064 3062 3060 3056 3052 3050 3045 3040 3037 3033 3026 3023 3020 3019 3014 3009 3006 3004 3000
3063 3062 3060 3058 3056 3053 3050 3047 3044 3040 3036 3032 3028 3022 3020 3017 3016 3011 3006 3003 3000 2996
3056 3056 3053 3051 3049 3047 3044 3040 3036 3033 3031 3027 3023 3019 3016 3015 3013 3008 3005 3002 2997 2995
3050 3050 3047 3045 3042 3038 3036 3033 3031 3028 3025 3023 3020 3016 3013 3011 3008 3005 3003 3000 2996 2994
3045 3043 3040 3038 3036 3033 3031 3028 3025 3023 3021 3019 3017 3013 3011 3008 3005 3002 3000 2997 2993 2992
3038 3037 3036 3033 3031 3027 3026 3022 3020 3020 3018 3017 3014 3010 3008 3005 3002 3000 2997 2994 2991 2989
3030 3031 3030 3028 3026 3024 3021 3019 3017 3017 3015 3014 3011 3008 3005 3003 3000 2998 2995 2992 2990 2987
3026 3025 3025 3023 3021 3020 3019 3016 3015 3014 3013 3011 3009 3006 3003 3000 2998 2995 2993 2991 2988 2986
3022 3020 3020 3018 3018 3016 3015 3014 3012 3011 3010 3008 3006 3004 3002 3000 2997 2994 2992 2989 2987 2985
3016 3016 3015 3014 3014 3013 3012 3011 3009 3009 3008 3006 3004 3002 3000 2998 2996 2993 2991 2988 2986 2984
3010 3011 3010 3010 3010 3010 3009 3009 3007 3006 3005 3004 3002 3000 2998 2997 2994 2992 2990 2987 2985 2983
3006 3006 3007 3006 3007 3006 3006 3005 3004 3003 3002 3002 3000 2999 2997 2996 2994 2992 2989 2987 2984 2982
3000 3001 3002 3004 3003 3003 3002 3002 3001 3000 3000 2999 2999 2997 2996 2995 2993 2991 2988 2986 2983 2981